Погода в Гвасюги

Погода в Гвасюги : погода сейчас, прогноз погоды и архив. Всё, что Вы хотите узнать о погоде в Гвасюги!

Поиск расширенной информации на нашем сайте:

Другие новости

Новости СМИ2

Главная страница сайта

Новости сайта

02.10.2013

Напоминаем, что на нашем новом сайте вы можете получить высокодетализированные прогнозы погоды по пунктам России, СНГ и мира (включающие важные для авиации метеовеличины, такие как направление и скорость ветра, видимость, явления погоды, количество и форма облачности, нижняя и верхняя граница облачности), а также ознакомиться с разнообразными материалами по авиационной метеорологии и подборкой полезных ссылок на эту тему.

Сайт Метеоцентр.Азия посвящён разработке технологий оптимизации авиаметеорологического обслуживания, включая проектирование и перспективное создание нескольких автоматизированных авиаметеорологических систем:
- система выпуска высокодетальных прогностических карт явлений погоды для нижнего воздушного пространства по России и ближнему зарубежью;
- система верификации прогнозов TAF (выпускаемых синоптиками официальных АМСГ РФ и ближнего зарубежья) и AUTOTAF (выпускаемых сайтом Метеоцентр.Азия) - выявление ошибок, онлайн-сопоставление с фактической погодой METAR, автоматическое внесение коррективов в прогнозы при резком отклонении фактической погоды от прогноза, подсчёт оправдываемости прогнозов по элементам и в целом;
- система обработки, анализа и отображения авиаметеорологической информации для применения провайдерами метеорологической информации.

Рекомендуем: Кредит наличными: росгосстрах банк взять потребительский кредит www.balt-credit.ru.

Погода в Гвасюги - сегодня

Время (UTC), дата Ветер
(°,м/с) 
Видим.   Явления Облачность Т
(°С)
Тd
(°С)
f(%) Тe
(°С)
Pmin
(гПа)
dP
(гПа)
Po
(мм)
O2
(г/м3)
Тmin Tmax R s Состояние
почвы
03 22.03.17 160 (Ю) 20000 м  {снег}  10/8 600 м кучево-дожд., верхняя 
[Cb cap|Ci sp]
+1.9 -4.2 64 +3  1008.8  0.1  740  297           
06 22.03.17 320 (СЗ) 20000 м  {снег}  10/10 600 м кучево-дожд. 
[Cb cap]
+0.7 -3.9 71 1010.2  1.1  741  298           
09 22.03.17 320 (СЗ) 20000 м    10/10 600 м 
[Sc]
-0.6 -4.8 73 -1  1012.3  742  300    +2.2     
12 22.03.17 360 (С) 20000 м    10/10 600 м 
[Sc]
-1.5 -4.9 78 -1  1014.3  1.9  744  302           
15 22.03.17 340 (С) 20000 м    8/8 600 м 
[Sc]
-2.7 -6.8 73 -2  1015.5  745  304           
18 22.03.17 тихо ()   20000 м    3/3 600 м 
[Sc]
-6.1 -7.6 89 -6  1016.2  0.4  745  308           
21 22.03.17 230 (ЮЗ) 20000 м    10/3 600 м средняя 
[Sc|Ac As]
-7.2 -9.3 85 -7  1017.2  0.9  746  309  -7.6      42  равномерный
мокрый или
старый снег
100% 
00 23.03.17 290 (З) 20000 м    10/0 верхняя 
[Cs]
-2.2 -12.9 44 -2  1017.4  0.6  746  304           
03 23.03.17 340 (С) 20000 м    10/3 600 м верхняя 
[Cu hum|Cs]
+1.2 -13.5 32 1017  -0.1  746  300           
06 23.03.17 020 (С) 20000 м    10/4 600 м кучево-дожд., верхняя 
[Cb cap|Cs]
+0.7 -13.2 34 -1  1016.6  -0.4  746  301           
09 23.03.17 020 (С) 20000 м    10/8 600 м верхняя 
[Sc|Cs]
-0.4 -12.8 39 1017.1  0.4  746  302    +1.6       
12 23.03.17 тихо ()   20000 м    10/10 600 м 
[Sc]
-2.9 -8.7 64 -3  1018.2  0.8  746  305           
15 23.03.17 020 (С) 20000 м    4/3 600 м верхняя 
[Sc|Ci sp]
-5.3 -10.3 68 -5  1018.7  0.4  747  308           
18 23.03.17 тихо ()   20000 м    8/3 600 м верхняя 
[Sc|Ci sp]
-7 -10.3 77 -7  1018.9  747  310           
21 23.03.17 тихо ()   20000 м    10/10 600 м 
[Sc]
-8.4 -10.7 83 -8  1019.6  0.6  747  312  -8.6      39  равномерный
мокрый или
старый снег
100% 
00 24.03.17 140 (ЮВ) 20000 м    10/3 600 м верхняя 
[Sc|Cs]
-2.7 -9.3 60 -2  1019.3  0.2  747  305           
03 24.03.17 320 (СЗ) 20000 м    10/10 600 м кучево-дожд. 
[Cb cap]
+1.9 -7.4 50 1017.9  -1  747  300           
06 24.03.17 340 (С) 20000 м    9/9 600 м кучево-дожд. 
[Cb cap]
+2.5 -8.3 45 +2  1017.5  -0.4  746  299           
09 24.03.17 360 (С) 20000 м    8/8 600 м кучево-дожд. 
[Cb cap]
+1.4 -7.3 52 +2  1018.2  0.7  747  300    +2.5       
12 24.03.17 тихо ()   20000 м    ясно 
-3.8 -6 85 -4  1019.6  0.9  748  306           
15 24.03.17 360 (С) 20000 м    ясно 
-6.5 -8.1 88 -6  1020.1  0.1  748  309           
18 24.03.17 340 (С) 20000 м    ясно 
-9.2 -10.3 92 -9  1020.3  0.1  748  313           
21 24.03.17 020 (С) 20000 м    8/6 600 м средняя 
[Sc|Ac trans]
-8.3 -9.8 89 -8  1020.7  0.5  748  312  -9.7      39  равномерный
мокрый или
старый снег
100% 
00 25.03.17 070 (В) 20000 м    8/3 600 м верхняя 
[Sc|Ci fib]
-3.1 -8.1 68 -4  1020.3  748  306           
03 25.03.17 110 (В) 20000 м    10/1 600 м верхняя 
[Cu hum|Cs]
+4 -8.1 41 +4  1017.5  -2.2  746  297           
Время (UTC), дата Ветер
(°,м/с) 
Видим.   Явления Облачность Т
(°С)
Тd
(°С)
f(%) Тe
(°С)
Pmin
(гПа)
dP
(гПа)
Po
(мм)
O2
(г/м3)
Тmin Tmax R s Состояние
почвы

Для получения пояснительной информации подведите курсор к названию столбца.

ПОГОДА в Гвасюги - архив

Всё, что Вы хотите узнать о погоде в Гвасюги - удобно и подробно!

Выберите нужную дату (начиная с 1 января 2015* года) и нажмите кнопку "Найти".
Будут отображены архивные сводки погоды по пункту Гвасюги, начиная с указанной даты.


Отображать данные в формате CSV (для использования в таблицах Excel)


Внимание! Наш архив погоды предназначен исключительно для личного некоммерческого использования в познавательных целях. Если Вам необходимы официальные справки о состоянии погоды (для производственных, юридических, коммерческих и т.п. целей), обращайтесь в органы Росгидромета.

*Примечание: данная дата относится к архиву по метеостанциям СССР (Россия, СНГ, Балтия).
Архив по метеостанциям Зарубежной Европы и Азии (кроме Китая) хранится 10 дней, по другим регионам земного шара (Китай, Африка, Америка, Австралия, Океания) - 1 день.

Гвасюги - район местоположения метеостанции


Название, широта, долгота, высота метеостанции:
Гвасюги 47.7°ш. 136.2°д. 180 м над ур. моря [Российская Федерация]

Дополнительная информация

В oтличие oт бoльшинства пoгoдных сайтoв мы публикуем пoдрoбную метеoинфoрмацию в детальнoм прoфессиoнальнoм фoрмате.

Характеристики температуры и влажнoсти вoздуха измеряются на высoте 2 м в тени вдали oт зданий и деревьев.
Скoрoсть ветра измеряется на высoте 10 м (на урoвне рoста челoвека скoрoсть ветра ниже в 1.5-2 раза). Если метеoстанция нахoдится в гoрoде или в лесу, тo скoрoсть ветра занижена на 2-4 м/с пo сравнению с oткрытым местoм. Скoрoсть ветра над акватoриями крупных рек и oзёр, а также на вершинах хoлмoв на 2-5 м/с выше, чем в oбычных услoвиях.
Атмoсфернoе давление в разных тoчках местнoсти мoжет значительнo oтличаться oт давления на метеoстанции, в зависимoсти oт услoвий рельефа (при пoдъёме на 10 м давление пoнижается примернo на 1 мм рт.ст.).